Location: Strada George Coșbuc
(47.6577°N, 23.5639°E)
Time: 20:26:36
(UTC+02:00)

ISS - Pass Details

Date: 02 October 2017
Orbit: 401 x 407 km, 51.6° (Epoch: 25 November)

Event Time Altitude Azimuth Distance (km) Brightness Sun altitude
Rises 20:48:59 0° 273° (W) 2,332 1.6 -18.5°
Reaches altitude 10° 20:51:08 10° 280° (W) 1,474 0.3 -18.9°
Maximum altitude 20:54:18 42° 353° (N) 603 -2.9 -19.4°
Enters shadow 20:54:51 38° 21° (NNE) 647 -2.9 -19.5°
